Content
SEND FEEDBACK

Daily
Averages
Monthly
Summary
United States of America

MAKINEN, MINNESOTA


Home > North America > United States > Minnesota
Elevation: 1460 feet     Latitude: 47 17N     Longitude: 092 11W

WEATHER
 
SELECT A DAY
Number of Records: 465,257;   Date Range: 1/1/95 - 11/27/14
 
SHARE

PRINT THIS DATA

[ ← Previous Day ]
WEATHER ALMANAC - JANUARY 23, 2013
[ Next Day → ]
[ °C ]   °F
Weather ElementAverageHighLow
Temperature-7.7 °F1.4 °F (9:49 am)-20.2 °F (2:30 am)
Dewpoint-16 °F-5.8 °F (9:30 am)-27.4 °F (2:30 am)
Humidity67.3 %84 % (6:50 am)55 % (1:49 pm)
Barometer30.21 in30.54 in (11:50 pm)30.00 in (7:49 am)
Wind Speed6.6 mph19.6 mph (11:30 am)
Wind Gust28.8 mph (12:09 pm)
Weather ElementAverage
Visibility6.9 mi
Wind DirectionSSW (200.9 °)

Weather ElementTotal
Precipitation---
Heating Degree Days74.4 (Base 65)
Averaged from 70 records on January 23, 2013
WEATHER CONDITIONS BREAKOUT
WIND DIRECTION BREAKOUT
WEATHER BY HOUR - JANUARY 23, 2013
[ °C ]   °F
Local TimeTemperatureDewpointHumidityBarometerVisibilityWind DirectionWind SpeedGust SpeedPrecipitationEventsConditions
12:30 AM-16.6 °F-22.0 °F76 %30.09 in10.0 miCalmOvercast
12:49 AM-14.8 °F-20.2 °F77 %30.08 in10.0 miCalmOvercast
1:09 AM-16.6 °F-25.6 °F64 %30.07 in10.0 miCalmOvercast
1:30 AM-16.6 °F-23.8 °F70 %30.08 in10.0 miCalmScattered Clouds
1:49 AM-16.6 °F-23.8 °F70 %30.08 in10.0 miCalmClear
2:09 AM-18.4 °F-25.6 °F70 %30.08 in10.0 miCalmMostly Cloudy
2:30 AM-20.2 °F-27.4 °F69 %30.08 in10.0 miCalmOvercast
2:49 AM-18.4 °F-25.6 °F70 %30.08 in10.0 miCalmOvercast
3:09 AM-16.6 °F-23.8 °F70 %30.07 in10.0 miCalmOvercast
3:30 AM-16.6 °F-22.0 °F76 %30.06 in10.0 miCalmOvercast
3:49 AM-14.8 °F-22.0 °F70 %30.06 in10.0 miCalmOvercast
4:09 AM-13.0 °F-18.4 °F77 %30.05 in10.0 miCalmSnowLight Snow
4:29 AM-11.2 °F-16.6 °F77 %30.05 in4.0 miCalmSnowLight Snow
4:49 AM-9.4 °F-14.8 °F77 %30.04 in3.0 miCalmSnowLight Snow
5:10 AM-7.6 °F-13.0 °F77 %30.03 in2.5 miWSW (250°)3.5 mphSnowLight Snow
5:29 AM-5.8 °F-11.2 °F77 %30.03 in3.0 miCalmSnowLight Snow
5:49 AM-5.8 °F-11.2 °F77 %30.03 in1.2 miCalmSnowLight Snow
6:10 AM-5.8 °F-13.0 °F71 %30.02 in1.8 miCalmSnowLight Snow
6:29 AM-5.8 °F-11.2 °F77 %30.02 in1.8 miCalmSnowLight Snow
6:50 AM-5.8 °F-9.4 °F84 %30.01 in2.0 miWest (260°)3.5 mphSnowLight Snow
7:09 AM-5.8 °F-9.4 °F84 %30.01 in1.8 miWest (260°)3.5 mphSnowLight Snow
7:30 AM-2.2 °F-7.6 °F78 %30.01 in1.5 miCalmSnowLight Snow
7:49 AM-2.2 °F-7.6 °F78 %30.00 in1.2 miCalmSnowLight Snow
8:09 AM-2.2 °F-7.6 °F78 %30.01 in0.5 miCalmSnowSnow
8:30 AM-2.2 °F-7.6 °F78 %30.01 in1.0 miWSW (240°)3.5 mphSnowLight Snow
8:49 AM-2.2 °F-7.6 °F78 %30.02 in4.0 miWest (280°)3.5 mphSnowLight Snow
9:09 AM-2.2 °F-7.6 °F78 %30.02 in7.0 miWNW (290°)3.5 mphSnowLight Snow
9:30 AM-0.4 °F-5.8 °F78 %30.03 in3.0 miNW (310°)11.5 mph19.6 mphSnowLight Snow
9:49 AM1.4 °F-5.8 °F72 %30.05 in4.0 miWNW (290°)16.1 mph20.7 mphHaze
10:09 AM1.4 °F-7.6 °F66 %30.05 in3.0 miWNW (300°)11.5 mph19.6 mphHaze
10:30 AM1.4 °F-7.6 °F66 %30.07 in2.5 miNW (320°)15.0 mph19.6 mphHaze
10:49 AM-0.4 °F-7.6 °F72 %30.07 in4.0 miNW (310°)13.8 mph23.0 mphHaze
11:09 AM-0.4 °F-9.4 °F66 %30.09 in4.0 miNW (310°)17.3 mph26.5 mphHaze
11:30 AM-0.4 °F-9.4 °F66 %30.10 in2.5 miNW (310°)19.6 mph26.5 mphHaze
11:49 AM-0.4 °F-9.4 °F66 %30.11 in1.5 miNW (310°)16.1 mph24.2 mphHaze
12:09 PM-2.2 °F-11.2 °F66 %30.12 in1.5 miNNW (330°)16.1 mph28.8 mphHaze
12:30 PM-2.2 °F-11.2 °F66 %30.14 in2.0 miNW (320°)17.3 mph23.0 mphHaze
12:49 PM-2.2 °F-13.0 °F60 %30.15 in2.0 miNW (310°)19.6 mph26.5 mphHaze
1:09 PM-2.2 °F-13.0 °F60 %30.15 in5.0 miNNW (340°)12.7 mph20.7 mphHaze
1:30 PM-2.2 °F-13.0 °F60 %30.17 in3.0 miNW (310°)17.3 mph23.0 mphHaze
1:49 PM-2.2 °F-14.8 °F55 %30.18 in7.0 miNNW (330°)12.7 mph24.2 mphOvercast
2:09 PM-2.2 °F-14.8 °F55 %30.21 in5.0 miNW (320°)11.5 mph23.0 mphHaze
2:30 PM-2.2 °F-14.8 °F55 %30.22 in10.0 miNNW (340°)13.8 mph21.9 mphOvercast
2:49 PM-2.2 °F-14.8 °F55 %30.25 in10.0 miNW (320°)11.5 mph23.0 mphMostly Cloudy
3:09 PM-4.0 °F-16.6 °F55 %30.26 in10.0 miNNW (340°)10.4 mph23.0 mphMostly Cloudy
3:30 PM-4.0 °F-16.6 °F55 %30.28 in10.0 miNorth (360°)15.0 mph19.6 mphMostly Cloudy
3:49 PM-5.8 °F-16.6 °F60 %30.29 in10.0 miNNW (330°)10.4 mph16.1 mphScattered Clouds
4:10 PM-5.8 °F-16.6 °F60 %30.31 in10.0 miNorth (350°)10.4 mph20.7 mphScattered Clouds
4:29 PM-5.8 °F-16.6 °F60 %30.33 in10.0 miNNW (340°)8.1 mphClear
4:49 PM-5.8 °F-18.4 °F55 %30.34 in10.0 miNNW (340°)8.1 mphClear
5:10 PM-7.6 °F-18.4 °F59 %30.35 in10.0 miNNW (340°)11.5 mph17.3 mphClear
5:29 PM-7.6 °F-18.4 °F59 %30.37 in10.0 miNNW (330°)9.2 mphClear
5:49 PM-7.6 °F-18.4 °F59 %30.39 in10.0 miNNW (330°)9.2 mphClear
6:10 PM-7.6 °F-18.4 °F59 %30.41 in10.0 miNW (320°)8.1 mphClear
6:29 PM-7.6 °F-18.4 °F59 %30.43 in10.0 miNW (310°)5.8 mph17.3 mphClear
6:49 PM-7.6 °F-18.4 °F59 %30.44 in10.0 miNW (320°)10.4 mphScattered Clouds
7:10 PM-7.6 °F-18.4 °F59 %30.45 in10.0 miNNW (330°)6.9 mphScattered Clouds
7:29 PM-9.4 °F-18.4 °F65 %30.46 in10.0 miNNW (330°)5.8 mphClear
7:49 PM-9.4 °F-18.4 °F65 %30.46 in10.0 miNNW (330°)6.9 mphClear
8:09 PM-9.4 °F-18.4 °F65 %30.47 in10.0 miNNW (340°)6.9 mphClear
8:29 PM-9.4 °F-18.4 °F65 %30.47 in10.0 miNorth (350°)4.6 mphClear
9:09 PM-11.2 °F-20.2 °F64 %30.49 in10.0 miNNW (340°)6.9 mphClear
9:29 PM-13.0 °F-22.0 °F64 %30.49 in10.0 miNorth (10°)4.6 mphClear
9:50 PM-13.0 °F-22.0 °F64 %30.50 in10.0 miCalmClear
10:09 PM-13.0 °F-22.0 °F64 %30.51 in10.0 miNorth (350°)6.9 mphClear
10:29 PM-13.0 °F-22.0 °F64 %30.52 in10.0 miNorth (350°)6.9 mphClear
10:50 PM-13.0 °F-22.0 °F64 %30.52 in10.0 miNorth (10°)4.6 mphClear
11:09 PM-14.8 °F-22.0 °F70 %30.52 in10.0 miNorth (10°)4.6 mphClear
11:29 PM-14.8 °F-23.8 °F64 %30.53 in10.0 miNNW (340°)3.5 mphClear
11:50 PM-14.8 °F-23.8 °F64 %30.54 in10.0 miCalmClear
Hourly data recorded from KEVM, located miles away from Makinen, Minnesota







STORIES FROM OUR PARTNERS